Location: Dortmund
(51.5019°N, 7.6520°E)
Time: 08:41:59
(UTC+01:00)

ISS - Pass Details

Date: 15 November 2017
Orbit: 402 x 407 km, 51.6° (Epoch: 24 November)

Event Time Altitude Azimuth Distance (km) Brightness Sun altitude
Exits shadow 04:55:19 18° 125° (SE) 1,074 -1.2 -26.6°
Drops below altitude 10° 04:56:17 10° 121° (ESE) 1,453 -0.3 -26.4°
Sets 04:58:22 0° 117° (ESE) 2,311 0.9 -26.1°
